Location: Brede
(50.9167°N, 0.6000°E)
Time: 17:03:29
(UTC+00:00)

ARIANE 5 R/B - Pass Details

Date: 08 August 2020
Orbit: 749 x 795 km, 98.6° (Epoch: 23 September)

Event Time Altitude Azimuth Distance (km) Brightness Sun altitude
Rises 03:10:05 0° 14° (NNE) 3,297 6.9 -11.6°
Reaches altitude 10° 03:12:25 10° 13° (NNE) 2,368 6.0 -11.3°
Maximum altitude 03:17:39 81° 288° (WNW) 811 2.6 -10.7°
Drops below altitude 10° 03:22:53 10° 201° (SSW) 2,360 4.5 -10.1°
Enters shadow 03:22:59 10° 201° (SSW) 2,400 4.5 -10.1°
